EW1620 Weather Reports


Display with metric or nautical units.
time (UTC)temp
F
wind
direction
speed
MPH
gust
MPH
rain 1hr
in
rain 24hr
in
rain mn
in
humidity
%
barometer
mb
20260505124028 57 333 0.0 1.0 0.00 0.02 0.02 71 1022.5
20260505123531 57 333 0.0 1.0 0.00 0.02 0.02 71 1022.6
20260505123052 57 334 0.0 1.0 0.00 0.02 0.02 71 1022.6
20260505122533 57 334 0.0 2.0 0.00 0.02 0.02 71 1022.6
20260505122033 57 333 0.0 2.0 0.00 0.02 0.02 71 1022.6
20260505121534 57 334 0.0 3.0 0.00 0.02 0.02 71 1022.6
20260505121032 57 290 0.0 2.0 0.00 0.02 0.02 71 1022.6
20260505120534 57 290 0.0 1.0 0.00 0.02 0.02 71 1022.7
20260505120032 57 290 0.0 2.0 0.00 0.02 0.02 71 1022.7
20260505115532 57 290 0.0 1.0 0.00 0.02 0.02 71 1022.7
20260505115031 57 290 0.0 1.0 0.00 0.02 0.02 71 1022.7
20260505114531 57 290 0.0 2.0 0.00 0.02 0.02 71 1022.7
20260505114030 57 290 0.0 1.0 0.00 0.02 0.02 71 1022.7
20260505113524 57 290 0.0 1.0 0.00 0.02 0.02 70 1022.7
20260505113033 57 290 0.0 1.0 0.00 0.02 0.02 70 1022.7
20260505112526 57 290 0.0 1.0 0.00 0.02 0.02 70 1022.7
20260505112024 57 290 0.0 1.0 0.00 0.02 0.02 70 1022.7
20260505111539 57 290 0.0 2.0 0.00 0.02 0.02 70 1022.6
20260505111023 57 290 0.0 2.0 0.00 0.02 0.02 70 1022.6
20260505110522 57 290 0.0 1.0 0.00 0.02 0.02 70 1022.6
20260505102026 57 299 0.0 3.0 0.00 0.02 0.02 68 1022.6
20260505101526 57 299 0.0 3.0 0.00 0.02 0.02 68 1022.5
20260505101023 58 301 0.0 2.0 0.00 0.02 0.02 68 1022.6
20260505100521 58 301 0.0 2.0 0.00 0.02 0.02 68 1022.5
20260505100022 58 301 0.0 1.0 0.00 0.02 0.02 68 1022.6
20260505095519 58 301 0.0 1.0 0.00 0.02 0.02 68 1022.5
20260505095019 58 301 0.0 0.0 0.00 0.02 0.02 68 1022.5
20260505094519 58 301 0.0 0.0 0.00 0.02 0.02 68 1022.5
20260505094022 58 301 0.0 1.0 0.00 0.02 0.02 68 1022.5
20260505093521 58 301 0.0 1.0 0.00 0.02 0.02 68 1022.5
20260505093022 58 301 0.0 1.0 0.00 0.02 0.02 68 1022.5
20260505092520 58 301 0.0 1.0 0.00 0.02 0.02 68 1022.6
20260505092021 58 301 0.0 1.0 0.00 0.02 0.02 68 1022.5
20260505091519 58 301 0.0 1.0 0.00 0.02 0.02 67 1022.5
20260505091017 58 301 0.0 1.0 0.00 0.02 0.02 67 1022.5
20260505090518 58 301 0.0 1.0 0.00 0.02 0.02 67 1022.4
20260505090017 58 301 0.0 1.0 0.00 0.02 0.02 67 1022.4
20260505085516 58 301 0.0 1.0 0.00 0.02 0.02 67 1022.3
20260505085017 58 301 0.0 3.0 0.00 0.02 0.02 67 1022.2
20260505084519 58 301 0.0 3.0 0.00 0.02 0.02 66 1022.2
20260505084014 58 301 0.0 2.0 0.00 0.02 0.02 66 1022.2
20260505083515 58 301 0.0 2.0 0.00 0.02 0.02 66 1022.1
20260505083017 59 301 0.0 2.0 0.00 0.02 0.02 66 1022.1
20260505082513 59 301 0.0 2.0 0.00 0.02 0.02 66 1022.1
20260505082012 59 306 0.0 2.0 0.00 0.02 0.02 66 1022.1
20260505081612 59 306 0.0 2.0 0.00 0.02 0.02 65 1022.0
20260505081016 59 306 0.0 1.0 0.00 0.02 0.02 65 1021.9
20260505080513 59 306 0.0 1.0 0.00 0.02 0.02 65 1021.9
20260505080026 59 306 0.0 1.0 0.00 0.02 0.02 65 1021.8
20260505075509 59 306 0.0 1.0 0.00 0.02 0.02 65 1021.7
20260505075016 59 306 0.0 2.0 0.00 0.02 0.02 65 1021.7
20260505074508 59 306 0.0 2.0 0.00 0.02 0.02 65 1021.7
20260505074007 59 306 0.0 2.0 0.00 0.02 0.02 65 1021.6
20260505073504 59 306 0.0 2.0 0.00 0.02 0.02 65 1021.6
20260505073003 59 306 1.0 4.0 0.00 0.02 0.02 65 1021.5
20260505072502 59 298 1.0 4.0 0.00 0.02 0.02 65 1021.5
20260505072002 59 301 0.0 3.0 0.00 0.02 0.02 64 1021.4
20260505071605 59 291 1.0 3.0 0.00 0.02 0.02 64 1021.4
20260505071001 59 302 0.0 2.0 0.00 0.02 0.02 64 1021.4
20260505070601 59 302 0.0 7.0 0.00 0.02 0.02 64 1021.4
20260505070100 59 302 1.0 7.0 0.00 0.02 0.02 63 1021.3
20260505065600 59 301 1.0 4.0 0.00 0.03 0.02 63 1021.3
20260505065101 59 264 1.0 4.0 0.00 0.03 0.02 63 1021.2
20260505064604 59 240 0.0 4.0 0.00 0.03 0.02 64 1021.2
20260505064058 59 257 0.0 4.0 0.00 0.03 0.02 63 1021.2
20260505063558 59 244 0.0 4.0 0.00 0.03 0.02 63 1021.2
20260505063056 59 269 1.0 5.0 0.00 0.03 0.02 63 1021.1
20260505062555 59 279 1.0 8.0 0.00 0.03 0.02 62 1021.2
20260505062054 60 282 2.0 10.0 0.00 0.03 0.02 63 1021.2
20260505061553 60 279 2.0 9.0 0.00 0.03 0.02 64 1021.1
20260505061051 60 279 1.0 4.0 0.00 0.03 0.02 65 1021.1
20260505060551 60 277 0.0 4.0 0.00 0.03 0.02 65 1021.1
20260505060051 60 270 2.0 5.0 0.00 0.03 0.02 64 1021.0
20260505055551 60 263 1.0 5.0 0.00 0.03 0.02 64 1021.0
20260505055053 60 209 1.0 5.0 0.00 0.03 0.02 64 1020.9
20260505054558 60 259 2.0 7.0 0.00 0.03 0.02 64 1020.8
20260505054048 60 269 2.0 5.0 0.00 0.03 0.02 65 1020.9
20260505053548 60 242 1.0 4.0 0.00 0.03 0.02 65 1020.8
20260505053102 60 250 1.0 6.0 0.00 0.03 0.02 65 1020.7
20260505052548 60 274 1.0 6.0 0.00 0.03 0.02 65 1020.7
20260505052048 60 237 1.0 5.0 0.00 0.03 0.02 65 1020.7
20260505051548 60 180 0.0 3.0 0.00 0.03 0.02 65 1020.6
20260505051048 60 244 0.0 5.0 0.00 0.03 0.02 65 1020.5
20260505050548 60 223 2.0 8.0 0.00 0.03 0.02 64 1020.6
20260505041646 61 236 2.0 8.0 0.00 0.03 0.02 62 1020.1
20260505041045 61 298 4.0 8.0 0.00 0.03 0.02 62 1020.0
20260505040546 61 267 2.0 8.0 0.00 0.03 0.02 62 1020.0
20260505040045 61 287 4.0 8.0 0.00 0.03 0.02 62 1020.0
20260505035545 61 275 4.0 9.0 0.00 0.03 0.02 62 1020.1
20260505035048 61 304 5.0 11.0 0.00 0.03 0.02 62 1020.0
20260505034547 61 286 4.0 11.0 0.00 0.03 0.02 62 1020.1
20260505034047 61 287 3.0 9.0 0.00 0.03 0.02 62 1020.0
20260505033545 61 224 2.0 9.0 0.00 0.03 0.02 62 1020.1
20260505033045 61 247 2.0 10.0 0.00 0.03 0.02 62 1020.1
20260505032547 62 244 5.0 10.0 0.00 0.03 0.02 61 1020.1
20260505032044 62 241 2.0 7.0 0.00 0.03 0.02 61 1020.1
20260505031544 62 244 2.0 6.0 0.00 0.03 0.02 61 1020.1
20260505031048 62 287 2.0 8.0 0.00 0.03 0.02 60 1020.1
20260505030546 62 291 3.0 9.0 0.00 0.03 0.02 60 1020.1
20260505030044 62 235 3.0 12.0 0.00 0.03 0.02 59 1020.1
20260505025544 63 238 3.0 8.0 0.00 0.03 0.02 59 1020.1
20260505025044 63 265 4.0 10.0 0.00 0.03 0.02 58 1020.1
20260505024547 63 284 5.0 10.0 0.00 0.03 0.02 58 1020.1
20260505024042 63 282 1.0 9.0 0.00 0.03 0.02 59 1020.1
20260505023543 63 281 3.0 14.0 0.00 0.03 0.02 59 1020.2
20260505023047 62 220 3.0 14.0 0.00 0.03 0.02 60 1020.2
20260505022542 62 239 4.0 12.0 0.00 0.03 0.02 60 1020.3
20260505022041 62 257 5.0 10.0 0.00 0.03 0.02 61 1020.3
20260505021641 62 242 3.0 10.0 0.00 0.03 0.02 61 1020.4
20260505021038 62 225 4.0 11.0 0.00 0.03 0.02 60 1020.5
20260505020537 61 278 4.0 9.0 0.00 0.03 0.02 61 1020.5
20260505020037 61 239 2.0 12.0 0.00 0.03 0.02 61 1020.6
20260505015536 61 235 6.0 12.0 0.00 0.03 0.02 61 1020.7
20260505015035 60 227 4.0 10.0 0.00 0.03 0.02 63 1020.6
20260505014541 60 207 3.0 10.0 0.00 0.03 0.02 64 1020.7
20260505014033 60 287 4.0 11.0 0.00 0.03 0.02 65 1020.7
20260505013534 59 255 2.0 9.0 0.00 0.03 0.02 66 1020.8
20260505013031 59 209 4.0 9.0 0.00 0.03 0.02 67 1020.9
20260505012528 58 311 2.0 11.0 0.00 0.03 0.02 67 1021.0
20260505012027 58 237 4.0 11.0 0.00 0.03 0.02 67 1021.0
20260505011526 57 270 3.0 10.0 0.00 0.03 0.02 69 1020.9
20260505011023 57 244 2.0 8.0 0.00 0.03 0.02 70 1020.9
20260505010523 56 291 2.0 7.0 0.00 0.03 0.02 70 1021.0
20260505010023 56 272 1.0 9.0 0.00 0.03 0.02 70 1021.0
20260505005522 56 245 4.0 9.0 0.00 0.03 0.02 69 1021.0
20260505005024 56 317 4.0 9.0 0.00 0.03 0.02 70 1021.0
20260505004523 56 257 2.0 13.0 0.00 0.03 0.02 70 1021.0
20260505004021 56 288 4.0 13.0 0.00 0.03 0.02 70 1021.0
20260505003530 56 286 2.0 9.0 0.00 0.03 0.02 70 1020.9
20260505003029 56 227 2.0 9.0 0.00 0.03 0.02 71 1020.8
20260505002531 56 282 3.0 9.0 0.00 0.03 0.02 71 1020.7
20260505002028 56 213 2.0 11.0 0.00 0.03 0.02 71 1020.6
20260505001535 56 206 5.0 13.0 0.00 0.03 0.02 71 1020.6
20260505001027 56 277 3.0 13.0 0.00 0.03 0.02 72 1020.5
20260505000527 56 269 5.0 11.0 0.00 0.03 0.02 71 1020.5
20260505000032 56 284 3.0 13.0 0.00 0.03 0.02 72 1020.4
20260504235526 56 229 4.0 13.0 0.00 0.03 0.02 72 1020.4
20260504235024 56 248 5.0 12.0 0.00 0.03 0.02 74 1020.3
20260504234524 56 224 2.0 8.0 0.00 0.03 0.02 75 1020.3
20260504234023 56 264 3.0 11.0 0.00 0.03 0.02 75 1020.2
20260504233510 56 263 4.0 11.0 0.00 0.03 0.02 76 1020.2
20260504233015 56 271 3.0 10.0 0.00 0.03 0.02 78 1020.2
20260504232507 56 242 2.0 10.0 0.00 0.03 0.02 80 1020.1
20260504232006 56 267 4.0 10.0 0.00 0.03 0.02 81 1020.1
20260504231518 55 290 3.0 6.0 0.00 0.03 0.02 83 1020.1
20260504231004 55 242 3.0 10.0 0.00 0.03 0.02 84 1020.1
20260504230504 54 272 4.0 10.0 0.00 0.03 0.02 85 1020.0
20260504230003 54 245 4.0 9.0 0.00 0.03 0.02 87 1020.0
20260504225502 54 264 1.0 9.0 0.00 0.03 0.02 88 1019.9
20260504225104 54 288 3.0 10.0 0.00 0.03 0.02 89 1019.9
20260504224600 53 281 3.0 10.0 0.00 0.03 0.02 89 1019.9
20260504224100 53 313 4.0 8.0 0.00 0.03 0.02 90 1019.8
20260504223555 53 272 2.0 6.0 0.00 0.03 0.02 90 1019.7
20260504223054 53 284 2.0 6.0 0.00 0.03 0.02 90 1019.6
20260504222555 53 302 1.0 4.0 0.00 0.03 0.02 90 1019.6
20260504222052 52 262 0.0 2.0 0.00 0.03 0.02 90 1019.5
20260504221558 52 262 0.0 2.0 0.00 0.03 0.02 90 1019.4
20260504221050 52 242 1.0 3.0 0.00 0.03 0.02 89 1019.3
20260504220549 52 240 1.0 3.0 0.00 0.03 0.02 89 1019.2
20260504220049 52 223 1.0 3.0 0.00 0.03 0.02 89 1019.1
20260504215548 52 257 0.0 2.0 0.00 0.03 0.02 89 1019.1
20260504215047 52 257 0.0 4.0 0.00 0.03 0.02 89 1019.0
20260504214546 52 253 1.0 7.0 0.01 0.03 0.02 89 1018.9
20260504214044 52 269 1.0 7.0 0.01 0.03 0.02 89 1018.7
20260504213545 52 236 0.0 3.0 0.01 0.03 0.02 89 1018.6
20260504213044 52 236 0.0 3.0 0.01 0.03 0.02 88 1018.5
20260504212541 53 254 0.0 2.0 0.02 0.03 0.02 88 1018.4
20260504212041 53 254 0.0 2.0 0.02 0.03 0.02 89 1018.3
20260504211548 53 238 0.0 4.0 0.02 0.03 0.02 89 1018.2
20260504211038 53 238 0.0 4.0 0.02 0.03 0.02 88 1018.0
20260504210537 53 274 0.0 1.0 0.02 0.03 0.02 88 1017.9
20260504210054 53 274 0.0 1.0 0.02 0.03 0.02 88 1017.9
20260504205537 53 274 0.0 1.0 0.02 0.03 0.02 88 1017.8
20260504205039 53 274 0.0 1.0 0.02 0.03 0.02 89 1017.9
20260504204543 53 274 0.0 1.0 0.01 0.02 0.02 89 1017.9
20260504204034 53 274 0.0 2.0 0.01 0.02 0.02 88 1017.8
20260504203534 53 274 0.0 7.0 0.01 0.02 0.02 88 1017.7
20260504203034 53 290 1.0 9.0 0.01 0.02 0.02 88 1017.6
20260504202532 53 276 2.0 9.0 0.00 0.02 0.01 88 1017.5
20260504202030 54 308 3.0 6.0 0.01 0.02 0.01 87 1017.4
20260504201531 54 309 1.0 6.0 0.01 0.02 0.01 87 1017.4
20260504201030 54 260 1.0 3.0 0.01 0.02 0.01 87 1017.2
20260504200530 54 285 0.0 2.0 0.01 0.02 0.01 87 1017.1
20260504200028 54 277 0.0 1.0 0.01 0.02 0.01 86 1017.1
20260504195527 54 277 0.0 3.0 0.01 0.02 0.01 86 1017.0
20260504195027 54 277 0.0 3.0 0.01 0.02 0.01 86 1016.9
20260504194539 54 281 0.0 4.0 0.01 0.02 0.01 86 1016.8
20260504194026 54 281 1.0 5.0 0.01 0.02 0.01 86 1016.7
20260504193523 54 287 1.0 5.0 0.01 0.02 0.01 86 1016.8
20260504193023 54 245 2.0 8.0 0.01 0.02 0.01 85 1016.7
20260504192521 54 261 2.0 8.0 0.01 0.02 0.01 85 1016.6
20260504192024 54 232 1.0 5.0 0.00 0.01 0.00 85 1016.6
20260504191520 54 254 1.0 4.0 0.00 0.01 0.00 84 1016.5
20260504191021 55 279 1.0 4.0 0.00 0.01 0.00 84 1016.4
20260504190523 55 279 1.0 4.0 0.00 0.01 0.00 84 1016.3
20260504190020 55 296 0.0 5.0 0.00 0.01 0.00 84 1016.2
20260504185521 55 293 2.0 5.0 0.00 0.01 0.00 84 1016.2
20260504185017 55 345 2.0 5.0 0.00 0.01 0.00 84 1016.2
20260504184517 55 294 1.0 6.0 0.00 0.01 0.00 84 1016.2
20260504184016 54 294 2.0 4.0 0.00 0.01 0.00 84 1016.1
20260504183521 54 286 1.0 4.0 0.00 0.01 0.00 84 1016.0
20260504183017 54 301 1.0 7.0 0.00 0.01 0.00 84 1015.8
20260504182517 54 309 2.0 6.0 0.00 0.01 0.00 84 1015.8
20260504182016 54 316 2.0 6.0 0.00 0.01 0.00 84 1015.8
20260504181515 54 299 2.0 7.0 0.00 0.01 0.00 84 1015.8
20260504181017 54 294 2.0 7.0 0.00 0.01 0.00 83 1015.7
20260504180515 54 274 2.0 7.0 0.00 0.01 0.00 83 1015.6
20260504180018 54 290 2.0 5.0 0.00 0.01 0.00 83 1015.6
20260504175512 54 292 2.0 7.0 0.00 0.01 0.00 83 1015.6
20260504175012 54 273 2.0 7.0 0.00 0.01 0.00 82 1015.5
20260504174512 54 279 1.0 4.0 0.00 0.01 0.00 82 1015.6
20260504174012 54 277 1.0 4.0 0.00 0.01 0.00 82 1015.5
20260504173510 54 279 0.0 2.0 0.00 0.01 0.00 82 1015.5
20260504173015 55 279 0.0 3.0 0.00 0.01 0.00 82 1015.5
20260504172510 55 279 1.0 6.0 0.00 0.01 0.00 82 1015.4
20260504172008 55 283 0.0 8.0 0.00 0.01 0.00 82 1015.4
20260504171508 55 273 2.0 8.0 0.00 0.01 0.00 82 1015.4
20260504171012 55 278 2.0 11.0 0.00 0.01 0.00 83 1015.4
20260504170508 55 292 5.0 11.0 0.00 0.01 0.00 83 1015.4
20260504151051 55 259 6.0 15.0 0.00 0.01 0.00 80 1014.5
20260504150550 55 289 4.0 13.0 0.00 0.01 0.00 80 1014.5
20260504141041 55 302 5.0 12.0 0.00 0.01 0.00 80 1014.0
20260504140540 55 275 6.0 15.0 0.00 0.01 0.00 80 1013.9
20260504130540 55 288 5.0 12.0 0.00 0.01 0.01 81 1014.0